{"data":{"norad_id":53708,"epoch":"2026-09-20T14:19:20.305920Z","epoch_age_seconds":73756,"freshness":"FRESH","line1":"1 53708U 22107J   26263.59676280 -.00001328  00000+0 -27161-4 0  9993","line2":"2 53708  53.1594  61.9304 0001116  87.4235 272.6896 15.35399937224656","mean_motion":15.35399937,"eccentricity":0.0001116,"inclination_deg":53.1594,"raan_deg":61.9304,"arg_perigee_deg":87.4235,"mean_anomaly_deg":272.6896,"bstar":-2.7161e-5,"rev_number":22465,"period_min":93.786639252676,"perigee_km":458.96972351416,"apogee_km":460.49593606017,"semimajor_km":6837.8698297872,"source":"CELESTRAK","updated_at":"2026-09-21T09:00:32.983235Z"}}